SKBO

El Dorado International Airport

ICAO Code SKBO
IATA Code BOG
Name El Dorado International Airport
Location Bogota, Bogota-D-C-, CO
Elevation 8361 Feet / 2548.4 Meters
Latitude 4.70159000
Longitude -74.14690000
METAR SKBO 060900Z VRB02KT 9999 FEW020 SCT070 12/10 Q1027 NOSIG RMK A3035
Extra information Display Charts
Runway Length Width Surface Elevation
13L 12467 ft 148 ft ASP 8354 ft
13R 12467 ft 148 ft ASP 8350 ft
31R 12467 ft 148 ft ASP 8354 ft
31L 12467 ft 148 ft ASP 8355 ft